Flag for Greece Weather past 2 weeks in Acharnes, Greece

Now
91 °F

Sunny.


Feels Like: 89 °F
Forecast: 70 / 92 °F
Wind: 8 mph from North

Location: Elefsis Airport

Current Time: Jul 26, 2014 at 8:19:27 PM

Latest Report: Jul 26, 2014 at 7:50 PM


Visibility: 10 mi

Pressure: 29.80 "Hg

Humidity: 28%

Dew point: 54 °F

Location of AcharnesLocation

Historic Weather in Acharnes — Graph

°F

Acharnes temperature yesterday

Maximum temperature yesterday: 95 °F (at 3:20 PM)
Minimum temperature yesterday: 72 °F (at 5:50 AM)
Average temperature yesterday: 83 °F

Past Weeks' High & Low Weather Summary

 TemperatureHumidityPressure
High97 °F (Jul 21, 2:50 PM)88% (Jul 19, 11:20 PM)29.92 "Hg (Jul 19, 11:20 PM)
Low68 °F (Jul 17, 3:50 AM)16% (Jul 12, 3:50 PM)29.59 "Hg (Jul 11, 6:20 PM)
Average81 °F46%29.81 "Hg
* Reported Jul 11 6:20 PM — Jul 26 6:50 PM, Acharnes, Weather by CustomWeather, © 2014

Note: Actual official high and low records may vary slightly from our data, if they occured in-between our weather recording intervals... More about our weather records

Advertising

Acharnes weather history for previous 24 hours

 ConditionsComfort  
Time TempWeatherWind HumidityBarometerVisibility
6:50 PM
Jul 26
93 °FPassing clouds.8 mph26%29.80 "HgN/A
6:20 PM93 °FPassing clouds.7 mph26%29.80 "HgN/A
5:50 PM95 °FPassing clouds.6 mph25%29.80 "HgN/A
5:20 PM93 °FPassing clouds.7 mph26%29.80 "HgN/A
4:50 PM93 °FPassing clouds.7 mph26%29.80 "HgN/A
4:20 PM95 °FScattered clouds.7 mph26%29.80 "HgN/A
3:50 PM93 °FScattered clouds.10 mph30%29.83 "HgN/A
3:20 PM93 °FScattered clouds.8 mph28%29.83 "HgN/A
2:50 PM93 °FScattered clouds.8 mph28%29.83 "HgN/A
2:20 PM93 °FScattered clouds.10 mph30%29.83 "HgN/A
1:50 PM93 °FScattered clouds.7 mph28%29.83 "HgN/A
1:20 PM91 °FScattered clouds.15 mph32%29.83 "HgN/A
12:50 PM91 °FScattered clouds.12 mph32%29.86 "HgN/A
12:20 PM91 °FPassing clouds.8 mph32%29.86 "HgN/A
11:50 AM90 °FPassing clouds.12 mph36%29.86 "HgN/A
11:20 AM90 °FPassing clouds.7 mph36%29.83 "HgN/A
10:50 AM88 °FPassing clouds.7 mph40%29.86 "HgN/A
10:20 AM86 °FSunny.7 mph43%29.86 "Hg10 mi
9:50 AM86 °FSunny.8 mph43%29.86 "Hg10 mi
9:20 AM84 °FSunny.5 mph43%29.86 "Hg10 mi
8:50 AM84 °FSunny.No wind43%29.86 "Hg10 mi
8:20 AM84 °FSunny.No wind43%29.86 "Hg10 mi
7:50 AM81 °FSunny.No wind48%29.83 "Hg10 mi
7:20 AM77 °FClear.No wind54%29.83 "Hg10 mi
6:50 AM75 °FClear.No wind57%29.83 "Hg10 mi
6:20 AM75 °FClear.No wind61%29.83 "Hg10 mi
5:50 AM77 °FClear.No wind57%29.80 "Hg10 mi
5:20 AM77 °FClear.No wind57%29.80 "Hg10 mi
4:50 AM77 °FClear.No wind57%29.83 "Hg10 mi
4:20 AM77 °FClear.No wind57%29.83 "Hg10 mi
3:50 AM77 °FClear.No wind57%29.83 "Hg10 mi
3:20 AM77 °FClear.No wind57%29.83 "Hg10 mi
2:50 AM79 °FClear.7 mph54%29.83 "Hg10 mi
2:20 AM79 °FClear.9 mph54%29.83 "Hg10 mi
1:50 AM79 °FClear.5 mph58%29.83 "Hg10 mi
1:20 AM79 °FClear.5 mph58%29.83 "Hg10 mi
12:50 AM81 °FClear.6 mph54%29.83 "Hg10 mi
12:20 AM81 °FClear.7 mph54%29.83 "Hg10 mi
11:50 PM
Jul 25
81 °FClear.7 mph51%29.83 "Hg10 mi
11:20 PM81 °FClear.6 mph48%29.83 "Hg10 mi
10:50 PM82 °FClear.5 mph45%29.83 "Hg10 mi
10:20 PM82 °FClear.No wind48%29.83 "Hg10 mi
9:50 PM82 °FClear.No wind51%29.83 "Hg10 mi
9:20 PM84 °FSunny.6 mph51%29.80 "Hg10 mi
8:50 PM84 °FSunny.10 mph51%29.80 "Hg10 mi
8:20 PM86 °FPassing clouds.7 mph49%29.77 "HgN/A
Weather by CustomWeather, © 2014

See weather overviewHow to use our weather pages